Location: ???? ??????? ????
(31.2176°N, 31.6797°E)
Time: 02:16:56
(UTC+00:00)

CZ-2D R/B - Pass Details

Date: 29 October 2020
Orbit: 521 x 537 km, 97.4° (Epoch: 25 November)

Event Time Altitude Azimuth Distance (km) Brightness Sun altitude
Rises 15:42:03 0° 141° (SE) 2,650 6.5 -8.1°
Reaches altitude 10° 15:44:26 10° 127° (SE) 1,762 5.5 -8.6°
Maximum altitude 15:47:29 24° 73° (ENE) 1,131 4.3 -9.3°
Drops below altitude 10° 15:50:33 10° 19° (NNE) 1,765 5.6 -9.9°
Sets 15:52:57 0° 5° (N) 2,655 6.7 -10.4°
